Regional Weather Roundup
Issued by NWS

Home | Current Version | Previous Version | Text Only | Print | Product List | Glossary Off
Versions: 1 2 3 4 5 6 7 8 9 10 11 12 13 14 15 16 17 18 19 20 21 22 23 24 25 26 27 28 29 30 31 32 33 34 35 36 37 38 39 40 41 42 43 44 45 46 47 48 49 50

000
ASUS45 KBOU 290707
RWRCO

WEATHER ROUNDUP FOR COLORADO
NATIONAL WEATHER SERVICE DENVER/BOULDER CO
100 AM MDT FRI APR 29 2016

NOTE: "FAIR" INDICATES FEW OR NO CLOUDS BELOW 12000 FEET WITH NO
SIGNIFICANT WEATHER AND/OR OBSTRUCTIONS TO VISIBILITY.

COZ001>005-013-030-031-290800-
...NORTHWEST COLORADO...

CITY           SKY/WX    TMP DP  RH WIND       PRES   REMARKS
CRAIG          CLOUDY    39  33  79 S7        29.91S
HAYDEN         CLOUDY    36  30  80 SE3       29.92S
MEEKER         LGT RAIN  39  35  86 E16       29.86F
MOUNT WERNER   NOT AVBL
STEAMBOAT SPGS MOCLDY    32  31  97 CALM      29.91F
WALDEN         FAIR      25  23  93 E3        29.96F
$$

COZ006>008-011-290800-
...WEST CENTRAL VALLEYS...

CITY           SKY/WX    TMP DP  RH WIND       PRES   REMARKS
GRAND JUNCTION CLOUDY    42  39  89 NE8       29.81R
MONTROSE       FAIR      46  34  62 S14       29.84R
EAGLE          FAIR      39  36  87 N3        29.91R
RIFLE          CLOUDY    43  37  79 E13       29.85F
DELTA          NOT AVBL
NUCLA          NOT AVBL
$$

COZ017>023-064>068-290800-
...SOUTHWEST COLORADO...

CITY           SKY/WX    TMP DP  RH WIND       PRES   REMARKS
DURANGO        LGT RAIN  41  28  60 S21G26    29.92R
CORTEZ         FAIR      36  33  89 CALM      29.86R
PAGOSA SPRINGS CLOUDY    44  17  34 NE6       29.89F
TELLURIDE      CLOUDY    33  24  70 E12       29.92R WCI  24
WOLF CREEK PAS NOT AVBL
$$

COZ009-010-012-014-032>034-037-058>063-290800-
...CENTRAL COLORADO...

CITY           SKY/WX    TMP DP  RH WIND       PRES   REMARKS
ASPEN          FAIR      33  29  85 N3        29.87R
BUENA VISTA    LGT SNOW  30  29  96 SE7       30.00R WCI  23
COPPER MTN     NOT AVBL
BERTHOUD PASS  SNOW      18   9  68 SE28G33   30.01F VSB 1/2 WCI  -1
COTTONWOOD PAS SNOW      30  28  93 E3        30.00S VSB 1/2
GUNNISON       FAIR      36  28  75 N5        29.91S
KREMMLING      MOCLDY    34  32  93 CALM      29.94S
LEADVILLE      CLOUDY    25  25 100 SW7       29.95S FOG     WCI  17
MONARCH PASS   CLOUDY    19  18  93 NE26      30.06F WCI   1
SALIDA         CLOUDY    33  32  98 E8        30.07S VSB 1/2 WCI  25
SUNLIGHT       FOG       30  30 100 CALM      29.98S VSB 1/4
WILKERSON PASS LGT SNOW  21  19  93 E9        30.03S VSB 3/4 WCI  11
$$

COZ069>075-290800-
...SAN LUIS VALLEY/SANGRE DE CRISTO MOUNTAINS...

CITY           SKY/WX    TMP DP  RH WIND       PRES   REMARKS
ALAMOSA        CLOUDY    36  34  92 E12       29.91R
LA VETA PASS   LGT SNOW  27  23  86 MISG      30.01R VSB 3/4
SAGUACHE       CLOUDY    34  34 100 S3        29.95S
$$

COZ035-036-038>040-290800-
...NORTHERN COLORADO FRONT RANGE...

CITY           SKY/WX    TMP DP  RH WIND       PRES   REMARKS
DENVER INTL AP FLURRIES  36  32  85 E8        30.03F
DMNS CITY PARK   N/A     37  36  95 E13       30.03F
AURORA         LGT RAIN  34  34  99 SE8       30.03F WCI  27
FRONT RANGE AP NOT AVBL
ERIE MUNI ARPT LGT RAIN  38  37  97 E5        30.04F
BOULDER MUN AP DRIZZLE   36  36 100 NE5       30.04S
CENTENNIAL     LGT SNOW  33  33 100 CALM      30.02F FOG
BROOMFIELD     LGT RAIN  36  36 100 E6        30.04S
FORT COLLINS   CLOUDY    37  34  87 SE13      30.05F
LONGMONT       NOT AVBL
$$

COZ041-046-047-076>085-087-088-290800-
...PIKES PEAK/PALMER DIVIDE AND SOUTHERN FOOTHILLS...

CITY           SKY/WX    TMP DP  RH WIND       PRES   REMARKS
COLO. SPRINGS  LGT SNOW  33  31  92 E3        30.05S FOG
A. F. ACADEMY  LGT SNOW  32  32 100 S5        30.03S FOG     WCI  27
SCHRIEVER AFB  NOT AVBL
ELLICOTT       NOT AVBL
FALCON         LGT SNOW  32  32 100 MISG      30.05R
FORT CARSON    LGT SNOW  32  32 100 N5        30.04R FOG     WCI  27
LIMON          LGT SNOW  34  33  96 NE12      30.03F FOG     WCI  25
MONUMENT HILL  CLOUDY    30  30 100 SE10      30.04S WCI  21
TRINIDAD       LGT SNOW  33  32  96 CALM      30.01R FOG
$$

COZ042>045-048>051-090-091-290800-
...NORTHEAST COLORADO...

CITY           SKY/WX    TMP DP  RH WIND       PRES   REMARKS
GREELEY ARPT   CLOUDY    37  34  87 SE8       30.06F
AKRON          CLOUDY    37  34  89 E10       30.05F
BURLINGTON     LGT RAIN  41  37  86 NE14      30.06R
WRAY           NOT AVBL
STERLING       CLOUDY    39  34  81 E8        30.07S
HOLYOKE        NOT AVBL
FORT MORGAN    CLOUDY    37  35  89 E6        30.07S
$$

COZ086-089-092>099-290800-
...SOUTHEAST COLORADO...

CITY           SKY/WX    TMP DP  RH WIND       PRES   REMARKS
PUEBLO         LGT RAIN  42  38  85 E10       30.02S
LA JUNTA       RAIN      43  41  93 E12       30.01S
LAMAR          RAIN      44  42  93 NE17      29.96F FOG
SPRINGFIELD      N/A     41  40  96 NE21G28   29.96F
$$



USA.gov is the U.S. government's official web portal to all federal, state and local government web resources and services.